N456AB KPOU-KHPN

Flight info

Callsign N456AB
Flight time N/A
Altitude VFR/035
Route
Aircraft C172/L-DOV/C

Departure

Time 2026-05-09 00:43
Airport Dutchess County Airport (KPOU)

Arrival

Time N/A
Airport Westchester County Airport (KHPN)
Time Latitude Longitude Altitude Speed Heading
2026-05-09 00:35 41.62862 -73.87810 159 ft 0 kts 51°
2026-05-09 00:40 41.62879 -73.87812 159 ft 7 kts 325°
2026-05-09 00:40 41.62883 -73.87815 159 ft 0 kts 322°
2026-05-09 00:41 41.62932 -73.87793 159 ft 11 kts 47°
2026-05-09 00:41 41.62971 -73.87754 160 ft 0 kts 323°
2026-05-09 00:42 41.62996 -73.87780 160 ft 9 kts 320°
2026-05-09 00:42 41.63008 -73.87873 161 ft 15 kts 238°
2026-05-09 00:42 41.62864 -73.88110 161 ft 56 kts 231°
2026-05-09 00:42 41.62547 -73.88613 255 ft 76 kts 234°
2026-05-09 00:43 41.62319 -73.89003 358 ft 83 kts 233°
2026-05-09 00:43 41.61809 -73.89815 610 ft 86 kts 233°
2026-05-09 00:43 41.61396 -73.90353 839 ft 84 kts 211°
2026-05-09 00:43 41.60814 -73.90419 1054 ft 88 kts 168°
2026-05-09 00:44 41.60266 -73.90034 1245 ft 92 kts 149°
2026-05-09 00:44 41.59734 -73.89498 1432 ft 97 kts 141°
2026-05-09 00:44 41.59240 -73.88873 1655 ft 99 kts 136°
2026-05-09 00:44 41.58905 -73.88386 1793 ft 101 kts 133°
2026-05-09 00:45 41.58879 -73.88346 1800 ft 102 kts 133°
2026-05-09 00:45 41.58441 -73.87630 2017 ft 99 kts 131°
2026-05-09 00:45 41.57999 -73.86893 2189 ft 104 kts 131°
2026-05-09 00:45 41.57499 -73.86217 2400 ft 101 kts 147°
2026-05-09 00:46 41.56879 -73.85750 2548 ft 103 kts 160°
2026-05-09 00:46 41.56801 -73.85706 2572 ft 103 kts 162°
2026-05-09 00:46 41.56564 -73.85577 2654 ft 100 kts 163°
2026-05-09 00:46 41.55930 -73.85205 2837 ft 102 kts 149°
2026-05-09 00:47 41.55364 -73.84613 2997 ft 105 kts 144°
2026-05-09 00:47 41.54777 -73.84058 3172 ft 102 kts 158°
2026-05-09 00:47 41.54116 -73.83783 3338 ft 99 kts 178°
2026-05-09 00:47 41.53435 -73.83661 3489 ft 102 kts 179°
2026-05-09 00:48 41.52721 -73.83527 3495 ft 104 kts 178°
2026-05-09 00:48 41.51998 -73.83418 3481 ft 104 kts 180°
2026-05-09 00:48 41.51273 -73.83310 3452 ft 106 kts 180°
2026-05-09 00:48 41.50528 -73.83213 3445 ft 108 kts 181°
2026-05-09 00:49 41.49773 -73.83137 3456 ft 109 kts 181°
2026-05-09 00:49 41.49016 -73.83046 3501 ft 108 kts 180°
2026-05-09 00:49 41.48264 -73.82941 3489 ft 111 kts 180°
2026-05-09 00:49 41.47499 -73.82790 3503 ft 112 kts 173°
2026-05-09 00:50 41.46829 -73.82608 3507 ft 111 kts 175°
2026-05-09 00:50 41.46678 -73.82571 3505 ft 111 kts 175°
2026-05-09 00:50 41.45913 -73.82388 3511 ft 111 kts 176°
2026-05-09 00:50 41.45152 -73.82216 3501 ft 112 kts 176°
2026-05-09 00:51 41.44377 -73.82072 3481 ft 112 kts 177°
2026-05-09 00:51 41.43624 -73.81876 3483 ft 112 kts 173°
2026-05-09 00:51 41.42863 -73.81637 3485 ft 111 kts 172°
2026-05-09 00:51 41.42113 -73.81384 3496 ft 111 kts 171°
2026-05-09 00:52 41.41371 -73.81105 3495 ft 110 kts 169°
2026-05-09 00:52 41.40627 -73.80824 3454 ft 112 kts 169°
2026-05-09 00:52 41.39886 -73.80526 3422 ft 110 kts 169°
2026-05-09 00:52 41.39171 -73.80234 3493 ft 105 kts 168°
2026-05-09 00:53 41.38454 -73.79938 3460 ft 110 kts 168°
2026-05-09 00:53 41.37720 -73.79659 3468 ft 108 kts 171°
2026-05-09 00:53 41.36991 -73.79400 3457 ft 110 kts 171°
2026-05-09 00:53 41.36265 -73.79148 3488 ft 107 kts 172°
2026-05-09 00:54 41.35533 -73.78946 3493 ft 108 kts 178°
2026-05-09 00:54 41.34790 -73.78817 3502 ft 107 kts 178°
2026-05-09 00:54 41.34054 -73.78660 3490 ft 108 kts 177°
2026-05-09 00:54 41.33318 -73.78507 3515 ft 107 kts 178°
2026-05-09 00:55 41.32580 -73.78374 3524 ft 107 kts 179°
2026-05-09 00:55 41.31842 -73.78249 3524 ft 107 kts 179°
2026-05-09 00:55 41.31105 -73.78113 3534 ft 107 kts 179°
2026-05-09 00:55 41.30368 -73.77931 3533 ft 109 kts 172°
2026-05-09 00:56 41.29634 -73.77668 3536 ft 110 kts 169°
2026-05-09 00:56 41.28917 -73.77308 3556 ft 109 kts 166°
2026-05-09 00:56 41.28310 -73.77001 3560 ft 110 kts 167°
2026-05-09 00:56 41.28300 -73.76996 3558 ft 110 kts 167°
2026-05-09 00:57 41.27577 -73.76665 3562 ft 110 kts 168°
2026-05-09 00:57 41.26849 -73.76353 3585 ft 109 kts 169°
2026-05-09 00:57 41.26114 -73.76068 3597 ft 109 kts 172°
2026-05-09 00:57 41.25381 -73.75789 3595 ft 110 kts 171°
2026-05-09 00:58 41.24651 -73.75520 3625 ft 107 kts 173°
2026-05-09 00:58 41.23928 -73.75285 3596 ft 110 kts 172°
2026-05-09 00:58 41.23212 -73.74956 3579 ft 107 kts 167°
2026-05-09 00:58 41.22523 -73.74593 3472 ft 105 kts 165°
2026-05-09 00:59 41.21848 -73.74225 3392 ft 105 kts 165°
2026-05-09 00:59 41.21171 -73.73891 3316 ft 103 kts 168°
2026-05-09 00:59 41.20484 -73.73598 3203 ft 104 kts 169°
2026-05-09 00:59 41.20253 -73.73502 3162 ft 104 kts 169°
2026-05-09 01:00 41.19105 -73.73067 3003 ft 103 kts 172°
2026-05-09 01:00 41.18409 -73.72841 2915 ft 103 kts 172°
2026-05-09 01:00 41.17717 -73.72608 2836 ft 102 kts 172°
2026-05-09 01:00 41.17031 -73.72352 2739 ft 102 kts 170°
2026-05-09 01:01 41.16351 -73.72104 2646 ft 103 kts 170°
2026-05-09 01:01 41.15655 -73.71854 2562 ft 102 kts 170°
2026-05-09 01:01 41.14959 -73.71639 2446 ft 102 kts 173°
2026-05-09 01:01 41.14265 -73.71405 2325 ft 103 kts 169°
2026-05-09 01:02 41.13578 -73.71121 2184 ft 103 kts 168°
2026-05-09 01:02 41.12892 -73.70852 2052 ft 103 kts 165°
2026-05-09 01:02 41.12208 -73.70533 1919 ft 104 kts 167°
2026-05-09 01:02 41.11517 -73.70298 1830 ft 102 kts 171°
2026-05-09 01:03 41.10821 -73.70102 1667 ft 105 kts 173°
2026-05-09 01:03 41.10104 -73.69945 1572 ft 104 kts 175°
2026-05-09 01:03 41.09401 -73.69694 1433 ft 106 kts 160°
2026-05-09 01:03 41.08765 -73.69220 1343 ft 104 kts 147°
2026-05-09 01:04 41.08198 -73.68671 1321 ft 99 kts 141°
2026-05-09 01:04 41.07701 -73.68083 1312 ft 94 kts 139°
2026-05-09 01:04 41.07231 -73.67557 1245 ft 87 kts 145°
2026-05-09 01:04 41.06726 -73.67114 1105 ft 84 kts 156°
2026-05-09 01:05 41.06174 -73.67026 999 ft 80 kts 196°
2026-05-09 01:05 41.05792 -73.67444 922 ft 73 kts 242°
2026-05-09 01:05 41.05320 -73.68654 745 ft 75 kts 244°
2026-05-09 01:06 41.05252 -73.69276 667 ft 69 kts 282°
2026-05-09 01:06 41.05536 -73.69767 551 ft 69 kts 327°
2026-05-09 01:06 41.05940 -73.70094 437 ft 68 kts 330°
2026-05-09 01:06 41.06310 -73.70379 389 ft 53 kts 329°
2026-05-09 01:07 41.06638 -73.70636 408 ft 68 kts 329°
2026-05-09 01:07 41.07071 -73.70949 573 ft 73 kts 334°
2026-05-09 01:07 41.07545 -73.71227 758 ft 77 kts 339°
2026-05-09 01:07 41.08065 -73.71450 948 ft 81 kts 343°
2026-05-09 01:08 41.08641 -73.71616 1107 ft 89 kts 348°
2026-05-09 01:08 41.09253 -73.71676 1324 ft 90 kts 357°
2026-05-09 01:08 41.09888 -73.71652 1544 ft 91 kts 357°
2026-05-09 01:08 41.10516 -73.71613 1750 ft 90 kts 358°
2026-05-09 01:09 41.11129 -73.71569 1963 ft 88 kts 356°
2026-05-09 01:09 41.11746 -73.71526 2173 ft 86 kts 356°
2026-05-09 01:09 41.12336 -73.71496 2366 ft 86 kts 355°
2026-05-09 01:09 41.12927 -73.71541 2551 ft 86 kts 349°
2026-05-09 01:10 41.13546 -73.71559 2700 ft 90 kts 354°
2026-05-09 01:10 41.14156 -73.71534 2891 ft 88 kts 354°
2026-05-09 01:10 41.14782 -73.71491 3063 ft 89 kts 355°
2026-05-09 01:10 41.15404 -73.71464 3267 ft 89 kts 352°
2026-05-09 01:11 41.16041 -73.71423 3439 ft 91 kts 351°
2026-05-09 01:11 41.16448 -73.71475 3588 ft 86 kts 338°
2026-05-09 01:11 41.17044 -73.71663 3715 ft 88 kts 332°
2026-05-09 01:11 41.17826 -73.71937 3916 ft 96 kts 349°
2026-05-09 01:12 41.18483 -73.71911 4125 ft 93 kts 351°
2026-05-09 01:12 41.18915 -73.71825 4236 ft 99 kts
2026-05-09 01:12 41.19568 -73.71564 4454 ft 94 kts 357°
2026-05-09 01:12 41.20213 -73.71575 4577 ft 95 kts 342°
2026-05-09 01:13 41.20917 -73.71644 4574 ft 104 kts 344°
2026-05-09 01:13 41.21654 -73.71648 4588 ft 110 kts 357°
2026-05-09 01:13 41.22425 -73.71404 4579 ft 117 kts
2026-05-09 01:13 41.23228 -73.71110 4550 ft 121 kts
2026-05-09 01:14 41.24037 -73.70855 4571 ft 116 kts
2026-05-09 01:14 41.24832 -73.70680 4549 ft 118 kts 358°
2026-05-09 01:14 41.25640 -73.70571 4547 ft 114 kts 351°
2026-05-09 01:14 41.26438 -73.70567 4516 ft 115 kts 350°
2026-05-09 01:15 41.27219 -73.70648 4559 ft 109 kts 340°
2026-05-09 01:15 41.27955 -73.70862 4564 ft 108 kts 333°
2026-05-09 01:15 41.28669 -73.71152 4563 ft 108 kts 335°
2026-05-09 01:15 41.29413 -73.71357 4526 ft 110 kts 339°
2026-05-09 01:16 41.30147 -73.71579 4539 ft 107 kts 336°
2026-05-09 01:16 41.30881 -73.71794 4503 ft 110 kts 339°
2026-05-09 01:16 41.31638 -73.71978 4518 ft 110 kts 341°
2026-05-09 01:17 41.33127 -73.72401 4489 ft 109 kts 337°
2026-05-09 01:17 41.33856 -73.72610 4508 ft 108 kts 338°
2026-05-09 01:17 41.34583 -73.72860 4488 ft 108 kts 334°
2026-05-09 01:17 41.35297 -73.73162 4488 ft 107 kts 332°
2026-05-09 01:18 41.35979 -73.73530 4508 ft 105 kts 324°
2026-05-09 01:18 41.36614 -73.73995 4497 ft 104 kts 322°
2026-05-09 01:18 41.37264 -73.74444 4469 ft 107 kts 327°
2026-05-09 01:18 41.37935 -73.74837 4489 ft 105 kts 327°
2026-05-09 01:19 41.38631 -73.75157 4464 ft 108 kts 336°
2026-05-09 01:19 41.39361 -73.75402 4481 ft 107 kts 337°
2026-05-09 01:19 41.40088 -73.75641 4450 ft 110 kts 337°
2026-05-09 01:19 41.40827 -73.75881 4449 ft 108 kts 336°
2026-05-09 01:20 41.41544 -73.76151 4422 ft 106 kts 332°
2026-05-09 01:20 41.42276 -73.76396 4405 ft 111 kts 344°
2026-05-09 01:20 41.43061 -73.76440 4438 ft 112 kts 352°
2026-05-09 01:20 41.43837 -73.76418 4413 ft 112 kts 352°
2026-05-09 01:21 41.44621 -73.76403 4380 ft 115 kts 353°
2026-05-09 01:21 41.45407 -73.76316 4409 ft 112 kts 353°
2026-05-09 01:21 41.46145 -73.76545 4339 ft 108 kts 329°
2026-05-09 01:21 41.46788 -73.76984 4323 ft 99 kts 320°
2026-05-09 01:22 41.47358 -73.77460 4281 ft 92 kts 320°
2026-05-09 01:22 41.47896 -73.77907 4186 ft 92 kts 321°
2026-05-09 01:22 41.48445 -73.78310 4132 ft 90 kts 324°
2026-05-09 01:22 41.49013 -73.78705 4022 ft 91 kts 324°
2026-05-09 01:23 41.49570 -73.79103 3929 ft 91 kts 324°
2026-05-09 01:23 41.50113 -73.79526 3856 ft 90 kts 320°
2026-05-09 01:23 41.50638 -73.79979 3785 ft 90 kts 319°
2026-05-09 01:23 41.51114 -73.80526 3685 ft 88 kts 306°
2026-05-09 01:24 41.51438 -73.81206 3606 ft 87 kts 294°
2026-05-09 01:24 41.51847 -73.81832 3513 ft 91 kts 316°
2026-05-09 01:24 41.52341 -73.82344 3448 ft 90 kts 317°
2026-05-09 01:24 41.52845 -73.82845 3347 ft 92 kts 319°
2026-05-09 01:25 41.53361 -73.83336 3271 ft 92 kts 320°
2026-05-09 01:25 41.53887 -73.83837 3174 ft 94 kts 319°
2026-05-09 01:25 41.54416 -73.84364 3055 ft 97 kts 318°
2026-05-09 01:25 41.54949 -73.84938 2933 ft 97 kts 314°
2026-05-09 01:26 41.55466 -73.85552 2737 ft 101 kts 315°
2026-05-09 01:26 41.56009 -73.86156 2554 ft 101 kts 318°
2026-05-09 01:26 41.56556 -73.86733 2361 ft 100 kts 320°
2026-05-09 01:26 41.57105 -73.87289 2161 ft 100 kts 321°
2026-05-09 01:27 41.57653 -73.87868 1955 ft 98 kts 319°
2026-05-09 01:27 41.58159 -73.88406 1824 ft 84 kts 318°
2026-05-09 01:27 41.58604 -73.88852 1681 ft 79 kts 320°
2026-05-09 01:27 41.59051 -73.89261 1528 ft 78 kts 324°
2026-05-09 01:28 41.59490 -73.89688 1357 ft 79 kts 315°
2026-05-09 01:28 41.59904 -73.90192 1167 ft 81 kts 319°
2026-05-09 01:28 41.60346 -73.90623 1067 ft 71 kts 324°
2026-05-09 01:28 41.60773 -73.90971 908 ft 70 kts 360°
2026-05-09 01:29 41.61238 -73.90671 615 ft 82 kts 44°
2026-05-09 01:29 41.61612 -73.90144 406 ft 77 kts 51°
2026-05-09 01:29 41.61933 -73.89622 274 ft 71 kts 51°
2026-05-09 01:29 41.62231 -73.89139 188 ft 62 kts 50°
2026-05-09 01:30 41.62477 -73.88733 162 ft 46 kts 50°
2026-05-09 01:30 41.62653 -73.88451 161 ft 27 kts 50°
2026-05-09 01:30 41.62748 -73.88296 162 ft 18 kts 50°
2026-05-09 01:30 41.62806 -73.88202 163 ft 13 kts 52°
2026-05-09 01:31 41.62822 -73.88083 161 ft 16 kts 139°
2026-05-09 01:31 41.62796 -73.88051 161 ft 0 kts 141°
2026-05-09 01:31 41.62795 -73.88020 160 ft 7 kts 59°
2026-05-09 01:31 41.62844 -73.87939 159 ft 14 kts 51°
2026-05-09 01:32 41.62839 -73.87873 159 ft 0 kts 141°
2026-05-09 01:32 41.62823 -73.87855 158 ft 6 kts 139°
2026-05-09 01:32 41.62811 -73.87836 158 ft 0 kts 72°